Вернуться в каталог

SJ-11-03

АктивенНаукаSSO
NORAD 37730·PAYLOAD·🇨🇳 China

Запущен Jul 6, 2011 с Jiuquan Satellite Launch Center

Loading…

Ближайшие Пролёты (ближайшие 24 часа)

TLE

СвежийSource: Space-Track

Эпоха: Sep 14, 2026, 14:12 UTC

1 37730U 11030A   26257.59222244  .00000103  00000-0  28052-4 0  9992
2 37730  97.9445 218.4603 0009483 106.3828  25.9196 14.64409171810194

Отслеживайте SJ-11-03 в реальном времени с AllMySat

Download on the App Store